Location: Donaumünster
(48.6785°N, 10.6989°E)
Time: 18:41:02
(UTC+00:00)

Daily predictions for brighter satellites

Satellite Brightness Start Highest point End
(mag) Time Altitude Azimuth Time Altitude Azimuth Time Altitude Azimuth
Cosmos 1441 Rocket 3.4 16:03:49 10° NNW 16:07:10 65° W 16:10:29 10° S
Cosmos 1908 Rocket 3.9 16:02:52 10° SSW 16:07:17 75° W 16:11:45 10° N
MOS 1 Rocket 4.3 16:04:01 10° ESE 16:07:22 22° ENE 16:10:52 10° NNE
SL-08 R/B 4.4 16:04:08 10° S 16:10:11 74° E 16:16:16 10° NNE
Cosmos 1975 Rocket 3.2 16:06:10 10° N 16:10:24 50° ENE 16:14:40 10° SSE
USA 215 3.3 16:03:59 10° ESE 16:10:31 79° NNE 16:17:05 10° NW
ARIANE 5 R/B 2.8 16:06:18 10° SE 16:11:01 44° ENE 16:15:45 10° N
ATLAS 5 CENTAUR R/B 2.4 16:08:53 10° NW 16:13:12 62° SW 16:18:34 10° SSE
Cosmos 1802 Rocket 4.4 16:11:36 10° SSW 16:18:01 74° W 16:24:27 10° N
Cosmos 2344 4.3 16:11:14 10° NW 16:18:09 38° NNE 16:26:42 10° E
Iridium 4 Rocket 4.0 16:14:40 10° SSW 16:19:36 60° W 16:24:09 10° N
SAR-Lupe-4 3.8 16:16:36 10° SE 16:20:02 47° ENE 16:23:30 10° N
ISS -3.4 16:24:55 10° SW 16:28:11 54° SSE 16:30:57 14° ENE
CZ-2D R/B 2.9 16:26:17 10° SSE 16:29:19 46° ENE 16:32:21 10° N
Cosmos 1833 Rocket 3.7 16:24:55 10° NW 16:30:22 51° WSW 16:35:48 10° S
COSMOS 2406 4.1 16:25:29 10° NNW 16:30:23 29° NE 16:35:17 10° ESE
Cosmos 407 Rocket 3.7 16:25:39 10° S 16:30:39 53° ESE 16:35:39 10° NNE
Cosmos 1484 Rocket 4.1 16:28:12 10° S 16:31:32 40° W 16:34:54 10° NNW
Cosmos 2016 Rocket 4.4 16:25:39 10° SSW 16:31:56 70° WNW 16:38:19 10° N
Cosmos 1812 3.2 16:30:10 10° SSE 16:32:33 23° E 16:34:33 12° NE
IRS-P3 4.3 16:29:20 10° SE 16:34:28 52° ENE 16:39:38 10° N
TIMED 4.4 16:30:35 10° SSW 16:34:51 89° SE 16:39:09 10° NNE
Tsikada Rocket 4.3 16:29:10 10° NNW 16:35:36 77° W 16:41:55 10° S
ERS-1 4.5 16:34:34 10° SSE 16:39:39 65° ENE 16:44:43 10° N
Cosmos 2084 Rocket 4.4 16:36:04 10° WSW 16:40:02 40° NW 16:44:02 10° NNE
SMAP 3.1 16:36:57 10° SSE 16:41:38 86° WSW 16:46:19 10° NNW
Cosmos 44 Rocket 3.6 16:39:03 10° SSW 16:43:38 49° ESE 16:47:38 14° NE
Cosmos 540 Rocket 3.4 16:39:49 10° NNW 16:44:59 80° ENE 16:50:06 10° SSE
SJ 16-02 2.4 16:42:19 10° SSE 16:45:49 24° E 16:47:54 17° ENE
SPOT 1/Viking Rocket 3.9 16:41:36 10° SE 16:46:23 40° ENE 16:51:13 10° N
Cosmos 1869 2.9 16:44:01 10° S 16:47:31 68° E 16:51:01 10° NNE
YAOGAN 1 3.4 16:44:42 10° ESE 16:48:16 27° ENE 16:51:52 10° N
SL-16 R/B 3.3 16:46:31 10° N 16:52:36 54° WNW 16:58:38 10° SW
Cosmos 1763 Rocket 3.7 16:48:11 10° NNW 16:53:25 76° WSW 16:58:32 10° SSE
Landsat 7 3.7 16:49:08 10° SSE 16:53:47 89° WSW 16:58:28 10° NNW
Spot 4 Rocket 4.3 16:52:35 10° SE 16:57:20 42° ENE 17:02:08 10° N
Nadezhda 4 Rocket 4.2 16:52:37 10° N 16:58:44 49° ENE 17:04:43 10° SSE
RESURS DK-1 2.8 16:55:12 10° NW 16:59:10 63° WSW 17:03:06 10° SSE
Timation 1 Rocket 4.5 16:53:13 10° NNW 16:59:11 79° WSW 17:05:08 10° SSE
Cosmos 1140 Rocket 4.3 16:54:46 10° SW 16:59:48 50° WNW 17:04:49 10° NNE
Aureole 3 Rocket 2.2 16:57:34 10° S 17:00:31 59° E 17:03:44 10° NNE
CZ-4C R/B 3.8 16:58:12 10° WNW 17:02:15 23° NNW 17:06:52 11° NE
Resurs 1-3 4.1 16:58:40 10° SE 17:02:32 34° ENE 17:06:26 10° N
CZ-4 R/B 4.3 17:01:46 10° SSE 17:05:39 57° ENE 17:09:33 10° N
UNK 4.3 17:01:09 10° N 17:05:42 58° WNW 17:10:13 10° SSW
SJ-6F 4.2 17:01:48 10° SSE 17:05:43 90° ENE 17:09:40 10° NNW
Cosmos 304 Rocket 4.4 17:04:28 10° SSE 17:08:43 34° ESE 17:10:28 26° ENE
Cosmos 1400 Rocket 3.1 17:06:26 10° SSE 17:09:57 38° E 17:11:07 30° NE
SJ-12 4.4 17:06:29 10° S 17:10:13 56° W 17:13:58 10° NNW
Cosmos 371 Rocket 3.9 17:06:03 10° SSE 17:10:21 34° ESE 17:12:04 26° ENE
Cosmos 1536 Rocket 3.5 17:07:56 10° N 17:12:20 58° ENE 17:16:40 10° SSE
SAR-Lupe-3 4.5 17:13:47 17° N 17:15:36 53° WNW 17:18:10 10° SSW
Helios 1A Rocket 3.5 17:16:48 28° SE 17:16:48 28° SE 17:19:00 10° SSE
Okean 2 Rocket 3.3 17:13:07 10° SSE 17:17:18 46° E 17:20:03 20° NNE
Cosmos 489 Rocket 4.4 17:13:01 10° NNW 17:19:16 68° ENE 17:25:27 10° SSE
NOAA 6 4.2 17:20:36 10° SE 17:25:31 48° ENE 17:30:27 10° N
Geosat 4.3 17:25:22 32° E 17:27:00 43° NE 17:31:43 10° NNW
SL-12 R/B(2) 4.4 17:18:56 10° SW 17:27:01 83° NW 17:35:47 14° NE
COSMO-SKYMED 1 2.6 17:26:50 39° ENE 17:27:50 49° E 17:31:50 10° S
Resurs 01 Rocket 3.3 17:30:11 19° NNE 17:30:11 19° NNE 17:31:48 10° N
Cosmos 1943 Rocket 2.5 17:24:45 10° SW 17:30:19 66° WNW 17:35:17 13° NNE
Timation 2 Rocket 4.5 17:24:54 10° SW 17:31:46 68° WNW 17:38:23 11° NNE
Cosmos 2251 Rocket 3.5 17:28:54 10° SSW 17:34:11 84° WNW 17:38:36 15° NNE
Cosmos 841 Rocket 3.4 17:28:58 10° NNW 17:34:14 69° ENE 17:38:54 13° SSE
Cosmos 2058 3.4 17:30:20 10° NNW 17:34:15 58° W 17:38:09 10° S
SJ-7 4.0 17:32:04 10° SSE 17:35:44 81° ENE 17:39:27 10° NNW
BREEZE-M DEB (TANK) 2.5 17:35:24 10° WSW 17:38:10 88° SSE 17:39:49 41° E
Cosmos 2082 Rocket 2.6 17:33:50 10° NNW 17:39:24 64° WSW 17:44:55 10° SSE
ATLAS 2AS CENTAUR R/B 3.0 17:33:55 10° NW 17:40:23 44° NE 17:42:14 36° ENE
Cosmos 1346 Rocket 4.4 17:37:18 10° N 17:38:39 20° N 17:38:39 20° N
IRAS Rocket 4.2 17:37:12 10° SSE 17:42:46 87° WSW 17:48:19 10° NNW
Cosmos 2278 Rocket 2.8 17:38:19 10° SW 17:43:52 56° WNW 17:48:33 15° NNE
MOS 1 Rocket 4.2 17:40:58 10° S 17:45:07 46° W 17:49:30 10° NNW
Cosmos 1464 Rocket 4.1 17:43:39 10° SSW 17:49:57 79° W 17:56:13 10° N
Cosmos 1634 Rocket 4.3 17:44:38 10° SSE 17:57:50 - NNE 17:50:01 42° E
CZ-2D R/B 4.1 17:46:46 10° S 17:50:50 56° W 17:54:59 10° NNW
Meteor 2-1 Rocket 4.2 17:45:47 10° S 17:51:38 65° E 17:57:31 10° NNE
Cosmos 2369 Rocket 3.8 17:48:28 10° SSE 17:50:08 18° SSE 17:50:08 18° SSE
USA 215 4.5 17:47:51 10° SSE 17:53:54 39° SW 17:59:59 10° WNW
PSLV R/B 3.6 17:52:35 10° S 17:56:36 68° WSW 18:00:38 10° NNW
Cosmos 1862 4.3 17:53:11 10° NNW 17:56:38 41° W 18:00:03 10° SSW
Cosmos 2151 Rocket 4.3 17:56:13 10° SSW 18:00:36 53° WNW 18:05:02 10° N
Cosmos 1190 Rocket 4.5 17:56:50 10° SW 18:02:04 60° WNW 18:05:26 22° N
Cosmos 2034 Rocket 3.9 17:57:39 10° S 18:03:52 90° W 18:10:12 10° N
ISS -2.2 18:01:42 10° W 18:03:52 34° WNW 18:03:52 34° WNW
Cosmos 676 Rocket 3.9 17:59:47 10° SSW 18:05:06 87° WNW 18:06:42 47° NNE
Okean 1 Rocket 3.3 18:02:52 10° SSW 18:07:14 68° W 18:08:25 46° NNW
SKYMED 2 4.5 18:03:51 15° N 18:07:17 48° WNW 18:11:28 10° SW
Cosmos 1656 Rocket 3.5 18:02:17 10° SSW 18:07:47 70° ESE 18:07:59 69° E
USA 281 3.2 18:11:28 55° ENE 18:11:56 56° NE 18:18:21 10° NNW
Sich 1 Rocket 4.1 18:08:32 10° SSW 18:13:00 60° WNW 18:14:56 32° N
COSMOS 2406 3.6 18:09:28 10° NNW 18:15:04 61° WSW 18:19:01 20° S
Cosmos 1932 4.4 18:08:56 10° SSW 18:15:17 78° SE 18:16:22 62° ENE
Cosmos 1092 Rocket 3.8 18:10:31 10° N 18:16:48 88° E 18:23:00 10° S
BlueWalker 3 4.4 18:14:58 10° SSW 18:15:40 15° SSW 18:15:40 15° SSW
Cosmos 2026 Rocket 4.0 18:15:42 10° NNW 18:21:47 77° W 18:27:55 10° S
SJ 16-02 2.6 18:19:42 10° SW 18:23:44 38° WNW 18:24:29 35° NW
YAOGAN 1 4.1 18:20:06 10° SSW 18:24:00 35° W 18:27:56 10° NNW
Cosmos 2344 3.9 18:25:28 10° NW 18:33:26 83° SW 18:38:34 34° SSE
Meteor 2-3 Rocket 4.5 18:32:10 10° NNW 18:37:40 51° W 18:43:04 10° SSW
CZ-4C R/B 4.1 18:48:09 10° NW 18:51:49 21° N 18:51:49 21° N
Resurs 01 Rocket 4.3 19:07:36 14° NW 19:07:36 14° NW 19:08:21 10° NNW
Cosmos 1943 Rocket 4.5 19:11:38 10° WNW 19:15:10 17° NW 19:16:48 15° NNW
ATLAS 2AS CENTAUR R/B 3.5 19:24:55 10° NW 19:29:41 44° WNW 19:29:41 44° WNW
